• In Moldova, Republic
  • List of Countries
  • For 7 days
  • Water Temperature
  • Satellite Maps
  • Weather Map
  • Weather Widgets
  • user-avatar
    Login

    Hourly Weather Klagenfurt

    Today, 24 March, Friday

    Time Temperature Precipitation Wind Pressure Humidity
    00:00 +6°C° 0 mm 1 mps 691 mmHg 96%
    01:00 +6°C° 0 mm 1 mps 691 mmHg 96%
    02:00 +5°C° 0 mm 1 mps 691 mmHg 96%
    03:00 +5°C° 0 mm 1 mps 691 mmHg 96%
    04:00 +5°C° 0 mm 1 mps 691 mmHg 96%
    05:00 +5°C° 0 mm 1 mps 692 mmHg 94%
    06:00 +6°C° 0 mm 1 mps 692 mmHg 92%
    07:00 +7°C° 0 mm 1 mps 693 mmHg 88%
    08:00 +9°C° 0 mm 1 mps 693 mmHg 79%
    09:00 +12°C° 0 mm 1 mps 694 mmHg 70%
    10:00 +13°C° 0 mm 0 mps 695 mmHg 61%
    11:00 +14°C° 0 mm 0 mps 695 mmHg 57%
    12:00 +16°C° 0 mm 1 mps 695 mmHg 54%
    13:00 +18°C° 0 mm 1 mps 695 mmHg 50%
    14:00 +18°C° 0 mm 1 mps 695 mmHg 52%
    15:00 +16°C° 0 mm 1 mps 695 mmHg 54%
    16:00 +16°C° 0 mm 1 mps 695 mmHg 56%
    17:00 +14°C° 0 mm 1 mps 694 mmHg 67%
    18:00 +11°C° 0 mm 1 mps 694 mmHg 78%
    19:00 +8°C° 0 mm 1 mps 694 mmHg 90%
    20:00 +8°C° 0 mm 1 mps 694 mmHg 91%
    21:00 +8°C° 0 mm 1 mps 694 mmHg 93%
    22:00 +8°C° 0 mm 1 mps 695 mmHg 94%
    23:00 +8°C° 0 mm 1 mps 695 mmHg 94%

    Tomorrow, 25 March, Saturday

    Time Temperature Precipitation Wind Pressure Humidity
    00:00 +7°C° 0 mm 1 mps 695 mmHg 95%
    01:00 +7°C° 0 mm 1 mps 695 mmHg 95%
    02:00 +7°C° 0 mm 1 mps 695 mmHg 95%
    03:00 +6°C° 0 mm 1 mps 695 mmHg 95%
    04:00 +6°C° 0 mm 1 mps 695 mmHg 95%
    05:00 +6°C° 0 mm 1 mps 695 mmHg 94%
    06:00 +6°C° 0 mm 1 mps 695 mmHg 93%
    07:00 +7°C° 0 mm 1 mps 695 mmHg 92%
    08:00 +8°C° 0 mm 1 mps 695 mmHg 85%
    09:00 +9°C° 0 mm 1 mps 695 mmHg 79%
    10:00 +9°C° 0 mm 2 mps 695 mmHg 72%
    11:00 +10°C° 0 mm 2 mps 695 mmHg 69%
    12:00 +12°C° 0 mm 2 mps 695 mmHg 66%
    13:00 +12°C° 0 mm 2 mps 695 mmHg 63%
    14:00 +12°C° 0 mm 2 mps 694 mmHg 64%
    15:00 +12°C° 0 mm 1 mps 694 mmHg 66%
    16:00 +12°C° 0 mm 1 mps 693 mmHg 68%
    17:00 +10°C° 0 mm 1 mps 693 mmHg 76%
    18:00 +8°C° 0 mm 1 mps 692 mmHg 84%
    19:00 +7°C° 0 mm 1 mps 692 mmHg 92%
    20:00 +6°C° 0 mm 1 mps 692 mmHg 93%
    21:00 +6°C° 0 mm 1 mps 692 mmHg 94%
    22:00 +5°C° 0 mm 1 mps 692 mmHg 95%
    23:00 +5°C° 0 mm 1 mps 691 mmHg 95%

    Day after tomorrow, 26 March, Sunday

    Time Temperature Precipitation Wind Pressure Humidity
    00:00 +4°C° 0 mm 1 mps 691 mmHg 96%
    01:00 +3°C° 0 mm 0 mps 691 mmHg 96%
    02:00 +3°C° 0 mm 0 mps 690 mmHg 96%
    03:00 +3°C° 0 mm 0 mps 690 mmHg 96%
    04:00 +3°C° 0 mm 0 mps 690 mmHg 95%
    05:00 +5°C° 0 mm 1 mps 690 mmHg 94%
    06:00 +5°C° 0 mm 1 mps 690 mmHg 94%
    07:00 +6°C° 0 mm 1 mps 690 mmHg 93%
    08:00 +7°C° 0 mm 1 mps 690 mmHg 86%
    09:00 +9°C° 0 mm 1 mps 691 mmHg 80%
    10:00 +10°C° 0 mm 1 mps 691 mmHg 73%
    11:00 +10°C° 0 mm 1 mps 691 mmHg 72%
    12:00 +10°C° 0 mm 2 mps 691 mmHg 70%
    13:00 +10°C° 0 mm 2 mps 691 mmHg 69%
    14:00 +9°C° 0.2 mm 2 mps 691 mmHg 71%
    15:00 +9°C° 0.2 mm 2 mps 691 mmHg 74%
    16:00 +8°C° 0.2 mm 2 mps 691 mmHg 76%
    17:00 +7°C° 0.2 mm 2 mps 691 mmHg 79%
    18:00 +6°C° 0.2 mm 2 mps 691 mmHg 82%
    19:00 +5°C° 0.2 mm 2 mps 692 mmHg 85%
    20:00 +4°C° 0 mm 2 mps 692 mmHg 86%
    21:00 +4°C° 0 mm 2 mps 693 mmHg 87%
    22:00 +3°C° 0 mm 2 mps 693 mmHg 88%
    23:00 +2°C° 0 mm 2 mps 693 mmHg 89%

    27 March, Monday

    Time Temperature Precipitation Wind Pressure Humidity
    00:00 +3°C° 0 mm 1 mps 693 mmHg 90%
    01:00 +2°C° 0 mm 1 mps 693 mmHg 91%
    02:00 +1°C° 0 mm 1 mps 693 mmHg 91%
    03:00 +1°C° 0 mm 1 mps 693 mmHg 92%
    04:00 0°C° 0 mm 1 mps 693 mmHg 93%
    05:00 +1°C° 0 mm 1 mps 693 mmHg 89%
    06:00 +1°C° 0 mm 1 mps 694 mmHg 86%
    07:00 +2°C° 0 mm 1 mps 694 mmHg 83%
    08:00 +4°C° 0 mm 1 mps 694 mmHg 73%
    09:00 +6°C° 0 mm 1 mps 694 mmHg 62%
    10:00 +8°C° 0 mm 1 mps 695 mmHg 52%
    11:00 +9°C° 0 mm 1 mps 695 mmHg 47%
    12:00 +9°C° 0 mm 2 mps 695 mmHg 42%
    13:00 +10°C° 0 mm 2 mps 695 mmHg 37%
    14:00 +10°C° 0 mm 2 mps 694 mmHg 38%
    15:00 +10°C° 0 mm 2 mps 694 mmHg 39%
    16:00 +11°C° 0 mm 1 mps 694 mmHg 40%
    17:00 +8°C° 0 mm 1 mps 694 mmHg 52%
    18:00 +5°C° 0 mm 1 mps 693 mmHg 63%
    19:00 +2°C° 0 mm 1 mps 693 mmHg 74%
    20:00 +2°C° 0 mm 1 mps 693 mmHg 75%
    21:00 +2°C° 0 mm 1 mps 694 mmHg 76%
    22:00 +1°C° 0 mm 1 mps 694 mmHg 76%
    23:00 +1°C° 0 mm 1 mps 694 mmHg 76%

    28 March, Tuesday

    Time Temperature Precipitation Wind Pressure Humidity
    00:00 +1°C° 0 mm 1 mps 694 mmHg 75%
    01:00 +1°C° 0 mm 1 mps 694 mmHg 75%
    02:00 +1°C° 0 mm 1 mps 694 mmHg 74%
    03:00 +1°C° 0 mm 1 mps 694 mmHg 74%
    04:00 +1°C° 0 mm 1 mps 694 mmHg 73%
    05:00 +2°C° 0 mm 1 mps 694 mmHg 70%
    06:00 +2°C° 0 mm 0 mps 695 mmHg 66%
    07:00 +3°C° 0 mm 0 mps 695 mmHg 63%
    08:00 +7°C° 0 mm 1 mps 696 mmHg 54%
    09:00 +9°C° 0 mm 1 mps 696 mmHg 46%
    10:00 +12°C° 0 mm 1 mps 697 mmHg 38%
    11:00 +13°C° 0 mm 1 mps 697 mmHg 37%
    12:00 +14°C° 0 mm 1 mps 697 mmHg 37%
    13:00 +15°C° 0 mm 1 mps 697 mmHg 37%
    14:00 +15°C° 0 mm 1 mps 696 mmHg 39%
    15:00 +15°C° 0 mm 1 mps 696 mmHg 42%
    16:00 +14°C° 0 mm 1 mps 696 mmHg 44%
    17:00 +11°C° 0 mm 1 mps 695 mmHg 58%
    18:00 +8°C° 0 mm 1 mps 695 mmHg 72%
    19:00 +4°C° 0 mm 1 mps 694 mmHg 85%
    20:00 +4°C° 0 mm 1 mps 694 mmHg 86%
    21:00 +2°C° 0 mm 0 mps 694 mmHg 87%
    22:00 +2°C° 0 mm 0 mps 695 mmHg 88%
    23:00 +2°C° 0 mm 0 mps 695 mmHg 87%

    29 March, Wednesday

    Time Temperature Precipitation Wind Pressure Humidity
    00:00 +2°C° 0 mm 0 mps 695 mmHg 87%
    01:00 +2°C° 0 mm 0 mps 695 mmHg 87%
    02:00 +2°C° 0 mm 0 mps 695 mmHg 87%
    03:00 +3°C° 0 mm 1 mps 695 mmHg 86%
    04:00 +2°C° 0 mm 1 mps 695 mmHg 86%
    05:00 +4°C° 0 mm 1 mps 695 mmHg 83%
    06:00 +5°C° 0 mm 1 mps 696 mmHg 80%
    07:00 +6°C° 0 mm 1 mps 696 mmHg 76%
    08:00 +9°C° 0 mm 1 mps 697 mmHg 66%
    09:00 +12°C° 0 mm 1 mps 697 mmHg 56%
    10:00 +15°C° 0 mm 1 mps 698 mmHg 46%
    11:00 +16°C° 0 mm 1 mps 698 mmHg 44%
    12:00 +18°C° 0 mm 1 mps 698 mmHg 41%
    13:00 +19°C° 0 mm 1 mps 698 mmHg 39%
    14:00 +18°C° 0 mm 1 mps 698 mmHg 41%
    15:00 +18°C° 0 mm 1 mps 697 mmHg 43%
    16:00 +16°C° 0 mm 1 mps 697 mmHg 46%
    17:00 +13°C° 0 mm 1 mps 696 mmHg 58%
    18:00 +10°C° 0 mm 1 mps 696 mmHg 70%
    19:00 +6°C° 0 mm 0 mps 695 mmHg 83%
    20:00 +5°C° 0 mm 0 mps 695 mmHg 84%
    21:00 +5°C° 0 mm 0 mps 696 mmHg 85%
    22:00 +4°C° 0 mm 0 mps 696 mmHg 85%
    23:00 +4°C° 0 mm 0 mps 696 mmHg 86%
    Show more